TimeEDT,TemperatureF,Dew PointF,Humidity,Sea Level PressureIn,VisibilityMPH,Wind Direction,Wind SpeedMPH,Gust SpeedMPH,PrecipitationIn,Events,Conditions,WindDirDegrees,DateUTC
12:53 AM,71.1,69.1,93,29.86,5.0,SSW,12.7,-,N/A,,Overcast,210,2013-07-11 04:53:00
1:53 AM,71.1,69.1,93,29.86,6.0,SSW,10.4,-,N/A,,Overcast,200,2013-07-11 05:53:00
2:49 AM,71.6,69.8,94,29.85,6.0,South,11.5,-,N/A,,Overcast,190,2013-07-11 06:49:00
2:53 AM,71.1,69.1,93,29.85,6.0,SSW,12.7,-,N/A,,Overcast,200,2013-07-11 06:53:00
3:53 AM,71.1,69.1,93,29.86,6.0,SSW,10.4,-,N/A,,Overcast,200,2013-07-11 07:53:00
4:53 AM,71.1,70.0,96,29.85,5.0,SSW,15.0,-,N/A,,Overcast,210,2013-07-11 08:53:00
5:08 AM,71.6,69.8,94,29.85,4.0,SW,13.8,-,N/A,,Overcast,220,2013-07-11 09:08:00
5:45 AM,71.6,69.8,94,29.85,2.5,SSW,12.7,-,N/A,,Overcast,210,2013-07-11 09:45:00
5:53 AM,71.1,70.0,96,29.85,2.5,SSW,11.5,-,N/A,,Overcast,210,2013-07-11 09:53:00
6:00 AM,71.6,69.8,94,29.85,3.0,SSW,11.5,-,N/A,,Overcast,210,2013-07-11 10:00:00
6:09 AM,71.6,69.8,94,29.85,2.5,SSW,9.2,-,N/A,,Overcast,210,2013-07-11 10:09:00
6:26 AM,71.6,69.8,94,29.86,3.0,SW,11.5,-,N/A,,Overcast,220,2013-07-11 10:26:00
6:53 AM,71.1,70.0,96,29.86,2.5,SW,10.4,-,0.01,,Overcast,220,2013-07-11 10:53:00
7:25 AM,71.6,71.6,100,29.87,3.0,SW,13.8,-,N/A,Thunderstorm,Overcast,220,2013-07-11 11:25:00
7:53 AM,73.9,72.0,93,29.87,5.0,SSW,15.0,-,N/A,Thunderstorm,Overcast,210,2013-07-11 11:53:00
8:02 AM,73.4,71.6,94,29.87,5.0,SSW,11.5,-,N/A,,Overcast,200,2013-07-11 12:02:00
8:53 AM,72.0,70.0,93,29.87,4.0,SW,5.8,-,0.00,Rain,Light Rain,220,2013-07-11 12:53:00
9:22 AM,73.4,69.8,88,29.88,8.0,West,15.0,21.9,0.00,Thunderstorm,Thunderstorm,260,2013-07-11 13:22:00
9:53 AM,75.0,70.0,84,29.88,7.0,WSW,15.0,-,0.00,Thunderstorm,Thunderstorm,240,2013-07-11 13:53:00
10:00 AM,73.4,69.8,88,29.88,7.0,WSW,11.5,-,N/A,,Mostly Cloudy,240,2013-07-11 14:00:00
10:53 AM,73.9,71.1,91,29.88,5.0,SW,10.4,-,N/A,,Mostly Cloudy,220,2013-07-11 14:53:00
11:09 AM,75.2,71.6,89,29.89,5.0,SW,11.5,-,N/A,,Overcast,220,2013-07-11 15:09:00
11:53 AM,73.0,70.0,90,29.89,6.0,West,11.5,-,N/A,,Overcast,270,2013-07-11 15:53:00
12:26 PM,71.6,69.8,94,29.89,8.0,NW,12.7,-,0.03,Rain,Light Rain,310,2013-07-11 16:26:00
12:53 PM,73.0,69.1,87,29.89,10.0,West,6.9,-,0.03,,Overcast,270,2013-07-11 16:53:00
1:53 PM,73.0,68.0,84,29.89,9.0,WSW,4.6,-,N/A,,Mostly Cloudy,240,2013-07-11 17:53:00
2:00 PM,73.4,68.0,83,29.89,6.0,SSW,5.8,-,0.00,Rain,Light Rain,200,2013-07-11 18:00:00
2:10 PM,69.8,68.0,94,29.89,4.0,SSE,12.7,-,0.00,Rain,Light Rain,150,2013-07-11 18:10:00
2:18 PM,71.6,69.8,94,29.89,3.0,SE,8.1,-,0.01,Rain,Light Rain,140,2013-07-11 18:18:00
2:25 PM,71.6,69.8,94,29.88,4.0,SE,5.8,-,0.01,Rain,Light Rain,130,2013-07-11 18:25:00
2:53 PM,72.0,70.0,93,29.88,7.0,South,6.9,-,0.01,Rain,Light Rain,170,2013-07-11 18:53:00
3:53 PM,72.0,70.0,93,29.87,3.0,South,8.1,-,0.00,,Overcast,190,2013-07-11 19:53:00
4:00 PM,71.6,69.8,94,29.87,3.0,SSW,8.1,-,N/A,,Mist,200,2013-07-11 20:00:00
4:07 PM,71.6,69.8,94,29.87,2.5,South,8.1,-,N/A,,Mist,190,2013-07-11 20:07:00
4:37 PM,71.6,69.8,94,29.87,3.0,SSW,9.2,-,N/A,,Mist,200,2013-07-11 20:37:00
4:53 PM,70.0,69.1,97,29.88,2.5,SSW,9.2,-,N/A,,Mist,200,2013-07-11 20:53:00
5:09 PM,69.8,69.8,100,29.87,4.0,South,9.2,-,N/A,,Mist,190,2013-07-11 21:09:00
5:53 PM,70.0,69.1,97,29.88,3.0,SSW,11.5,-,0.01,Rain,Light Rain,200,2013-07-11 21:53:00
6:53 PM,71.1,70.0,96,29.88,3.0,SSW,8.1,-,0.00,Rain,Light Rain,210,2013-07-11 22:53:00
7:07 PM,71.6,69.8,94,29.88,2.5,WSW,5.8,-,0.00,Rain,Light Rain,240,2013-07-11 23:07:00
7:42 PM,71.6,69.8,94,29.89,1.8,SSW,5.8,-,0.01,Rain,Light Rain,200,2013-07-11 23:42:00
7:53 PM,70.0,69.1,97,29.89,0.8,SW,5.8,-,0.01,Rain,Light Rain,220,2013-07-11 23:53:00
8:09 PM,71.6,69.8,94,29.89,1.0,SW,6.9,-,0.00,,Overcast,230,2013-07-12 00:09:00
8:38 PM,71.6,69.8,94,29.90,2.0,SW,5.8,-,0.00,,Overcast,230,2013-07-12 00:38:00
8:53 PM,71.1,70.0,96,29.91,2.0,SW,6.9,-,0.00,,Overcast,220,2013-07-12 00:53:00
9:53 PM,71.1,70.0,96,29.91,2.0,SW,5.8,-,N/A,,Overcast,220,2013-07-12 01:53:00
10:00 PM,71.6,69.8,94,29.91,3.0,SSW,8.1,-,N/A,,Overcast,200,2013-07-12 02:00:00
10:09 PM,69.8,69.8,100,29.91,3.0,SSW,5.8,-,N/A,,Overcast,200,2013-07-12 02:09:00
10:53 PM,70.0,69.1,97,29.91,4.0,SSW,4.6,-,N/A,,Overcast,200,2013-07-12 02:53:00
11:53 PM,69.1,68.0,96,29.91,4.0,SW,4.6,-,N/A,,Overcast,220,2013-07-12 03:53:00